• In Deutschland
  • Länderverzeichnis
  • Für 7 Tage
  • Wassertemperatur
  • Satellitenkarten
  • Wetterkarte
  • Widgets
  • user-avatar
    Anmelden

    Stündliche Wetter Muiinga

    Heute, 21 Mai, Montag

    Zeit Temperatur Niederschläge Wind Luftdruck Luftfeuchtigkeit
    00:00 +16°C° 0 mm 1 m/S 628 mmHg 90%
    01:00 +16°C° 0 mm 1 m/S 628 mmHg 90%
    02:00 +15°C° 0 mm 1 m/S 627 mmHg 91%
    03:00 +15°C° 0 mm 1 m/S 627 mmHg 91%
    04:00 +15°C° 0 mm 1 m/S 627 mmHg 92%
    05:00 +15°C° 0 mm 1 m/S 627 mmHg 92%
    06:00 +16°C° 0 mm 1 m/S 628 mmHg 87%
    07:00 +19°C° 0 mm 1 m/S 629 mmHg 83%
    08:00 +18°C° 0 mm 0 m/S 630 mmHg 79%
    09:00 +21°C° 0,1 mm 1 m/S 630 mmHg 74%
    10:00 +23°C° 0,1 mm 2 m/S 630 mmHg 69%
    11:00 +24°C° 0,1 mm 3 m/S 631 mmHg 64%
    12:00 +24°C° 0,3 mm 3 m/S 630 mmHg 65%
    13:00 +25°C° 0,3 mm 2 m/S 629 mmHg 65%
    14:00 +25°C° 0,3 mm 2 m/S 629 mmHg 66%
    15:00 +24°C° 0,7 mm 2 m/S 628 mmHg 72%
    16:00 +23°C° 0,7 mm 2 m/S 628 mmHg 78%
    17:00 +22°C° 0,7 mm 1 m/S 627 mmHg 85%
    18:00 +21°C° 0,5 mm 1 m/S 627 mmHg 87%
    19:00 +19°C° 0,5 mm 1 m/S 628 mmHg 90%
    20:00 +18°C° 0,5 mm 1 m/S 628 mmHg 93%
    21:00 +18°C° 0,2 mm 1 m/S 628 mmHg 93%
    22:00 +16°C° 0,2 mm 1 m/S 628 mmHg 94%
    23:00 +16°C° 0,2 mm 1 m/S 628 mmHg 95%

    Morgen, 22 Mai, Dienstag

    Zeit Temperatur Niederschläge Wind Luftdruck Luftfeuchtigkeit
    00:00 +16°C° 0,2 mm 1 m/S 628 mmHg 95%
    01:00 +15°C° 0,2 mm 1 m/S 628 mmHg 96%
    02:00 +15°C° 0,2 mm 1 m/S 627 mmHg 96%
    03:00 +15°C° 0 mm 1 m/S 627 mmHg 96%
    04:00 +15°C° 0 mm 1 m/S 627 mmHg 96%
    05:00 +15°C° 0 mm 1 m/S 627 mmHg 95%
    06:00 +16°C° 0 mm 1 m/S 628 mmHg 92%
    07:00 +18°C° 0 mm 1 m/S 629 mmHg 89%
    08:00 +20°C° 0 mm 1 m/S 630 mmHg 86%
    09:00 +21°C° 0,3 mm 1 m/S 631 mmHg 80%
    10:00 +21°C° 0,3 mm 2 m/S 631 mmHg 75%
    11:00 +23°C° 0,3 mm 2 m/S 632 mmHg 69%
    12:00 +23°C° 0,7 mm 2 m/S 631 mmHg 70%
    13:00 +23°C° 0,7 mm 2 m/S 630 mmHg 72%
    14:00 +24°C° 0,7 mm 1 m/S 630 mmHg 73%
    15:00 +23°C° 1,2 mm 1 m/S 629 mmHg 77%
    16:00 +22°C° 1,2 mm 1 m/S 629 mmHg 82%
    17:00 +22°C° 1,2 mm 1 m/S 628 mmHg 86%
    18:00 +19°C° 0,6 mm 0 m/S 629 mmHg 88%
    19:00 +17°C° 0,6 mm 0 m/S 629 mmHg 89%
    20:00 +16°C° 0,6 mm 0 m/S 629 mmHg 91%
    21:00 +16°C° 0,4 mm 0 m/S 629 mmHg 92%
    22:00 +18°C° 0,4 mm 1 m/S 629 mmHg 93%
    23:00 +18°C° 0,4 mm 1 m/S 630 mmHg 94%

    übermorgen, 23 Mai, Mittwoch

    Zeit Temperatur Niederschläge Wind Luftdruck Luftfeuchtigkeit
    00:00 +16°C° 0,1 mm 1 m/S 629 mmHg 94%
    01:00 +16°C° 0,1 mm 1 m/S 629 mmHg 94%
    02:00 +16°C° 0,1 mm 1 m/S 628 mmHg 95%
    03:00 +15°C° 0 mm 1 m/S 628 mmHg 95%
    04:00 +15°C° 0 mm 1 m/S 628 mmHg 95%
    05:00 +14°C° 0 mm 0 m/S 628 mmHg 95%
    06:00 +15°C° 0 mm 0 m/S 629 mmHg 92%
    07:00 +17°C° 0 mm 0 m/S 630 mmHg 88%
    08:00 +18°C° 0 mm 0 m/S 631 mmHg 85%
    09:00 +21°C° 0,3 mm 1 m/S 631 mmHg 81%
    10:00 +21°C° 0,3 mm 2 m/S 632 mmHg 76%
    11:00 +22°C° 0,3 mm 3 m/S 632 mmHg 71%
    12:00 +23°C° 0,9 mm 2 m/S 631 mmHg 73%
    13:00 +23°C° 0,9 mm 2 m/S 631 mmHg 75%
    14:00 +23°C° 0,9 mm 2 m/S 630 mmHg 77%
    15:00 +23°C° 1,1 mm 2 m/S 629 mmHg 80%
    16:00 +21°C° 1,1 mm 2 m/S 629 mmHg 84%
    17:00 +21°C° 1,1 mm 1 m/S 629 mmHg 87%
    18:00 +20°C° 0,9 mm 1 m/S 629 mmHg 89%
    19:00 +19°C° 0,9 mm 1 m/S 630 mmHg 91%
    20:00 +18°C° 0,9 mm 1 m/S 630 mmHg 93%
    21:00 +18°C° 0,2 mm 1 m/S 630 mmHg 93%
    22:00 +16°C° 0,2 mm 1 m/S 630 mmHg 93%
    23:00 +16°C° 0,2 mm 1 m/S 630 mmHg 93%

    24 Mai, Donnerstag

    Zeit Temperatur Niederschläge Wind Luftdruck Luftfeuchtigkeit
    00:00 +16°C° 0 mm 1 m/S 629 mmHg 94%
    01:00 +15°C° 0 mm 1 m/S 629 mmHg 94%
    02:00 +15°C° 0 mm 1 m/S 628 mmHg 94%
    03:00 +15°C° 0 mm 1 m/S 628 mmHg 94%
    04:00 +15°C° 0 mm 1 m/S 628 mmHg 94%
    05:00 +15°C° 0 mm 1 m/S 628 mmHg 94%
    06:00 +16°C° 0 mm 1 m/S 629 mmHg 91%
    07:00 +18°C° 0 mm 1 m/S 630 mmHg 88%
    08:00 +19°C° 0 mm 1 m/S 631 mmHg 86%
    09:00 +20°C° 0,1 mm 1 m/S 631 mmHg 81%
    10:00 +20°C° 0,1 mm 2 m/S 631 mmHg 76%
    11:00 +22°C° 0,1 mm 3 m/S 632 mmHg 71%
    12:00 +22°C° 0,4 mm 3 m/S 631 mmHg 70%
    13:00 +23°C° 0,4 mm 2 m/S 630 mmHg 70%
    14:00 +24°C° 0,4 mm 2 m/S 629 mmHg 70%
    15:00 +23°C° 1 mm 2 m/S 629 mmHg 75%
    16:00 +23°C° 1 mm 1 m/S 629 mmHg 80%
    17:00 +22°C° 1 mm 1 m/S 629 mmHg 85%
    18:00 +20°C° 0,5 mm 1 m/S 629 mmHg 87%
    19:00 +19°C° 0,5 mm 1 m/S 629 mmHg 90%
    20:00 +18°C° 0,5 mm 1 m/S 629 mmHg 92%
    21:00 +16°C° 0,1 mm 1 m/S 629 mmHg 92%
    22:00 +16°C° 0,1 mm 1 m/S 629 mmHg 93%
    23:00 +15°C° 0,1 mm 1 m/S 629 mmHg 94%

    25 Mai, Freitag

    Zeit Temperatur Niederschläge Wind Luftdruck Luftfeuchtigkeit
    00:00 +15°C° 0 mm 1 m/S 628 mmHg 94%
    01:00 +15°C° 0 mm 1 m/S 628 mmHg 94%
    02:00 +15°C° 0 mm 1 m/S 627 mmHg 94%
    03:00 +14°C° 0 mm 1 m/S 627 mmHg 94%
    04:00 +14°C° 0 mm 1 m/S 627 mmHg 93%
    05:00 +14°C° 0 mm 1 m/S 627 mmHg 93%
    06:00 +15°C° 0 mm 1 m/S 628 mmHg 90%
    07:00 +18°C° 0 mm 1 m/S 629 mmHg 86%
    08:00 +19°C° 0 mm 1 m/S 630 mmHg 83%
    09:00 +21°C° 0 mm 1 m/S 631 mmHg 77%
    10:00 +21°C° 0 mm 2 m/S 631 mmHg 71%
    11:00 +22°C° 0 mm 3 m/S 631 mmHg 66%
    12:00 +24°C° 0,1 mm 2 m/S 630 mmHg 65%
    13:00 +24°C° 0,1 mm 2 m/S 630 mmHg 64%
    14:00 +25°C° 0,1 mm 2 m/S 629 mmHg 63%
    15:00 +24°C° 0,2 mm 2 m/S 629 mmHg 67%
    16:00 +23°C° 0,2 mm 1 m/S 629 mmHg 71%
    17:00 +23°C° 0,2 mm 1 m/S 628 mmHg 76%
    18:00 +21°C° 0 mm 1 m/S 628 mmHg 80%
    19:00 +19°C° 0 mm 1 m/S 629 mmHg 84%
    20:00 +18°C° 0 mm 1 m/S 629 mmHg 88%
    21:00 +16°C° 0 mm 1 m/S 628 mmHg 89%
    22:00 +16°C° 0 mm 1 m/S 628 mmHg 90%
    23:00 +16°C° 0 mm 1 m/S 628 mmHg 91%

    26 Mai, Samstag

    Zeit Temperatur Niederschläge Wind Luftdruck Luftfeuchtigkeit
    00:00 +15°C° 0 mm 1 m/S 628 mmHg 91%
    01:00 +15°C° 0 mm 1 m/S 627 mmHg 92%
    02:00 +14°C° 0 mm 1 m/S 627 mmHg 92%
    03:00 +14°C° 0 mm 1 m/S 627 mmHg 92%
    04:00 +13°C° 0 mm 0 m/S 627 mmHg 92%
    05:00 +13°C° 0 mm 0 m/S 627 mmHg 92%
    06:00 +14°C° 0 mm 0 m/S 628 mmHg 87%
    07:00 +16°C° 0 mm 0 m/S 629 mmHg 82%
    08:00 +20°C° 0 mm 1 m/S 630 mmHg 78%
    09:00 +21°C° 0 mm 1 m/S 631 mmHg 73%
    10:00 +23°C° 0 mm 2 m/S 631 mmHg 68%
    11:00 +24°C° 0 mm 2 m/S 631 mmHg 63%
    12:00 +24°C° 0,1 mm 2 m/S 630 mmHg 62%
    13:00 +25°C° 0,1 mm 2 m/S 630 mmHg 60%
    14:00 +25°C° 0,1 mm 2 m/S 629 mmHg 59%
    15:00 +25°C° 0,2 mm 2 m/S 629 mmHg 65%
    16:00 +24°C° 0,2 mm 1 m/S 629 mmHg 71%
    17:00 +23°C° 0,2 mm 1 m/S 629 mmHg 76%
    18:00 +21°C° 0,1 mm 1 m/S 629 mmHg 80%
    19:00 +20°C° 0,1 mm 1 m/S 628 mmHg 84%
    20:00 +18°C° 0,1 mm 1 m/S 628 mmHg 88%
    21:00 +18°C° 0,1 mm 1 m/S 628 mmHg 90%
    22:00 +16°C° 0,1 mm 1 m/S 628 mmHg 91%
    23:00 +16°C° 0,1 mm 1 m/S 628 mmHg 92%
    Mehr zeigen